owner,sensor,date,latitude,longitude,vertical_datum,sea_water_practical_salinity,qcFlag 
DISL,ioos:station:DISL:DISL:1,2017-01-01T00:00:00Z,30.2513,-88.0778,2.143,24.83,1111122 
DISL,ioos:station:DISL:DISL:1,2017-01-01T00:30:00Z,30.2513,-88.0778,2.161,25.57,1111122 
DISL,ioos:station:DISL:DISL:1,2017-01-01T01:00:00Z,30.2513,-88.0778,2.199,25.61,1111122 
DISL,ioos:station:DISL:DISL:1,2017-01-01T01:30:00Z,30.2513,-88.0778,2.216,25.69,1111122 
DISL,ioos:station:DISL:DISL:1,2017-01-01T02:00:00Z,30.2513,-88.0778,2.253,25.81,1111122 
DISL,ioos:station:DISL:DISL:1,2017-01-01T02:30:00Z,30.2513,-88.0778,2.27,25.82,1111122 
DISL,ioos:station:DISL:DISL:1,2017-01-01T03:00:00Z,30.2513,-88.0778,2.303,26.08,1111122 
DISL,ioos:station:DISL:DISL:1,2017-01-01T03:30:00Z,30.2513,-88.0778,2.314,26.17,1111122 
DISL,ioos:station:DISL:DISL:1,2017-01-01T04:00:00Z,30.2513,-88.0778,2.335,26.13,1111122 
DISL,ioos:station:DISL:DISL:1,2017-01-01T04:30:00Z,30.2513,-88.0778,2.394,24.72,1111122 
DISL,ioos:station:DISL:DISL:1,2017-01-01T05:00:00Z,30.2513,-88.0778,2.345,23.43,1111122 
DISL,ioos:station:DISL:DISL:1,2017-01-01T05:30:00Z,30.2513,-88.0778,2.342,23.23,1111122 
DISL,ioos:station:DISL:DISL:1,2017-01-01T06:30:00Z,30.2513,-88.0778,2.425,25.02,1111122 
DISL,ioos:station:DISL:DISL:1,2017-01-01T07:00:00Z,30.2513,-88.0778,2.399,23.04,1111122 
DISL,ioos:station:DISL:DISL:1,2017-01-01T07:30:00Z,30.2513,-88.0778,2.378,23.03,1111122 
DISL,ioos:station:DISL:DISL:1,2017-01-01T08:00:00Z,30.2513,-88.0778,2.354,23.02,1111122 
DISL,ioos:station:DISL:DISL:1,2017-01-01T08:30:00Z,30.2513,-88.0778,2.341,23.02,1111122 
DISL,ioos:station:DISL:DISL:1,2017-01-01T09:00:00Z,30.2513,-88.0778,2.336,25.35,1111122 
DISL,ioos:station:DISL:DISL:1,2017-01-01T09:30:00Z,30.2513,-88.0778,2.333,25.08,1111122 
DISL,ioos:station:DISL:DISL:1,2017-01-01T10:00:00Z,30.2513,-88.0778,2.309,23.03,1111122 
DISL,ioos:station:DISL:DISL:1,2017-01-01T10:30:00Z,30.2513,-88.0778,2.261,24.18,1111122 
DISL,ioos:station:DISL:DISL:1,2017-01-01T11:00:00Z,30.2513,-88.0778,2.197,23.98,1111122 
DISL,ioos:station:DISL:DISL:1,2017-01-01T11:30:00Z,30.2513,-88.0778,2.186,23.74,1111122 
DISL,ioos:station:DISL:DISL:1,2017-01-01T12:00:00Z,30.2513,-88.0778,2.163,23.35,1111122 
DISL,ioos:station:DISL:DISL:1,2017-01-01T12:30:00Z,30.2513,-88.0778,2.174,23.45,1111122 
DISL,ioos:station:DISL:DISL:1,2017-01-01T13:00:00Z,30.2513,-88.0778,2.166,23.55,1111122 
DISL,ioos:station:DISL:DISL:1,2017-01-01T13:30:00Z,30.2513,-88.0778,2.135,23.49,1111122 
DISL,ioos:station:DISL:DISL:1,2017-01-01T14:00:00Z,30.2513,-88.0778,2.117,23.47,1111122 
DISL,ioos:station:DISL:DISL:1,2017-01-01T14:30:00Z,30.2513,-88.0778,2.092,23.31,1111122 
DISL,ioos:station:DISL:DISL:1,2017-01-01T15:00:00Z,30.2513,-88.0778,2.068,23.44,1111122 
DISL,ioos:station:DISL:DISL:1,2017-01-01T15:30:00Z,30.2513,-88.0778,2.068,23.28,1111122 
DISL,ioos:station:DISL:DISL:1,2017-01-01T16:00:00Z,30.2513,-88.0778,2.074,23.16,1111122 
DISL,ioos:station:DISL:DISL:1,2017-01-01T16:30:00Z,30.2513,-88.0778,2.09,23.06,1111122 
DISL,ioos:station:DISL:DISL:1,2017-01-01T17:00:00Z,30.2513,-88.0778,2.078,23.03,1111122 
DISL,ioos:station:DISL:DISL:1,2017-01-01T17:30:00Z,30.2513,-88.0778,2.076,23.14,1111122 
DISL,ioos:station:DISL:DISL:1,2017-01-01T18:00:00Z,30.2513,-88.0778,2.096,23.16,1111122 
DISL,ioos:station:DISL:DISL:1,2017-01-01T18:30:00Z,30.2513,-88.0778,2.118,23.25,1111122 
DISL,ioos:station:DISL:DISL:1,2017-01-01T19:00:00Z,30.2513,-88.0778,2.139,23.31,1111122 
DISL,ioos:station:DISL:DISL:1,2017-01-01T19:30:00Z,30.2513,-88.0778,2.148,23.12,1111122 
DISL,ioos:station:DISL:DISL:1,2017-01-01T20:00:00Z,30.2513,-88.0778,2.175,23.24,1111122 
DISL,ioos:station:DISL:DISL:1,2017-01-01T20:30:00Z,30.2513,-88.0778,2.188,23.36,1111122 
DISL,ioos:station:DISL:DISL:1,2017-01-01T21:00:00Z,30.2513,-88.0778,2.214,23.06,1111122 
DISL,ioos:station:DISL:DISL:1,2017-01-01T21:30:00Z,30.2513,-88.0778,2.257,22.79,1111122 
DISL,ioos:station:DISL:DISL:1,2017-01-01T22:00:00Z,30.2513,-88.0778,2.264,22.87,1111122 
DISL,ioos:station:DISL:DISL:1,2017-01-01T22:30:00Z,30.2513,-88.0778,2.292,22.78,1111122 
DISL,ioos:station:DISL:DISL:1,2017-01-01T23:00:00Z,30.2513,-88.0778,2.32,22.85,1111122 
DISL,ioos:station:DISL:DISL:1,2017-01-01T23:30:00Z,30.2513,-88.0778,2.343,22.9,1111122 
DISL,ioos:station:DISL:DISL:1,2017-01-02T00:00:00Z,30.2513,-88.0778,2.357,22.83,1111122 
DISL,ioos:station:DISL:DISL:1,2017-01-02T00:30:00Z,30.2513,-88.0778,2.39,23.68,1111122 
DISL,ioos:station:DISL:DISL:1,2017-01-02T01:00:00Z,30.2513,-88.0778,2.421,24.91,1111122 
DISL,ioos:station:DISL:DISL:1,2017-01-02T01:30:00Z,30.2513,-88.0778,2.452,26.26,1111122 
DISL,ioos:station:DISL:DISL:1,2017-01-02T02:00:00Z,30.2513,-88.0778,2.455,26.7,1111122 
DISL,ioos:station:DISL:DISL:1,2017-01-02T02:30:00Z,30.2513,-88.0778,2.484,26.88,1111122 
DISL,ioos:station:DISL:DISL:1,2017-01-02T03:00:00Z,30.2513,-88.0778,2.504,26.01,1111122 
DISL,ioos:station:DISL:DISL:1,2017-01-02T03:30:00Z,30.2513,-88.0778,2.513,22.62,1111122 
DISL,ioos:station:DISL:DISL:1,2017-01-02T04:00:00Z,30.2513,-88.0778,2.525,22.97,1111122 
DISL,ioos:station:DISL:DISL:1,2017-01-02T04:30:00Z,30.2513,-88.0778,2.542,24.31,1111122 
DISL,ioos:station:DISL:DISL:1,2017-01-02T05:00:00Z,30.2513,-88.0778,2.528,22.83,1111122 
DISL,ioos:station:DISL:DISL:1,2017-01-02T05:30:00Z,30.2513,-88.0778,2.519,22.3,1111122 
DISL,ioos:station:DISL:DISL:1,2017-01-02T06:30:00Z,30.2513,-88.0778,2.467,23.43,1111122 
DISL,ioos:station:DISL:DISL:1,2017-01-02T07:00:00Z,30.2513,-88.0778,2.446,23.5,1111122 
DISL,ioos:station:DISL:DISL:1,2017-01-02T07:30:00Z,30.2513,-88.0778,2.441,23.34,1111122 
DISL,ioos:station:DISL:DISL:1,2017-01-02T08:00:00Z,30.2513,-88.0778,2.429,23.22,1111122 
DISL,ioos:station:DISL:DISL:1,2017-01-02T08:30:00Z,30.2513,-88.0778,2.419,23.18,1111122 
DISL,ioos:station:DISL:DISL:1,2017-01-02T09:00:00Z,30.2513,-88.0778,2.385,23.0,1111122 
DISL,ioos:station:DISL:DISL:1,2017-01-02T09:30:00Z,30.2513,-88.0778,2.353,22.88,1111122 
DISL,ioos:station:DISL:DISL:1,2017-01-02T10:00:00Z,30.2513,-88.0778,2.339,22.81,1111122 
DISL,ioos:station:DISL:DISL:1,2017-01-02T10:30:00Z,30.2513,-88.0778,2.296,22.76,1111122 
DISL,ioos:station:DISL:DISL:1,2017-01-02T11:00:00Z,30.2513,-88.0778,2.255,22.74,1111122 
DISL,ioos:station:DISL:DISL:1,2017-01-02T11:30:00Z,30.2513,-88.0778,2.217,22.61,1111122 
DISL,ioos:station:DISL:DISL:1,2017-01-02T12:00:00Z,30.2513,-88.0778,2.2,22.55,1111122 
DISL,ioos:station:DISL:DISL:1,2017-01-02T12:30:00Z,30.2513,-88.0778,2.178,22.5,1111122 
DISL,ioos:station:DISL:DISL:1,2017-01-02T13:00:00Z,30.2513,-88.0778,2.155,22.47,1111122 
DISL,ioos:station:DISL:DISL:1,2017-01-02T13:30:00Z,30.2513,-88.0778,2.142,22.39,1111122 
DISL,ioos:station:DISL:DISL:1,2017-01-02T14:00:00Z,30.2513,-88.0778,2.09,22.45,1111122 
DISL,ioos:station:DISL:DISL:1,2017-01-02T14:30:00Z,30.2513,-88.0778,2.097,22.34,1111122 
DISL,ioos:station:DISL:DISL:1,2017-01-02T15:00:00Z,30.2513,-88.0778,2.084,22.44,1111122 
DISL,ioos:station:DISL:DISL:1,2017-01-02T15:30:00Z,30.2513,-88.0778,2.09,22.31,1111122 
DISL,ioos:station:DISL:DISL:1,2017-01-02T16:00:00Z,30.2513,-88.0778,2.08,22.13,1111122 
DISL,ioos:station:DISL:DISL:1,2017-01-02T16:30:00Z,30.2513,-88.0778,2.049,21.97,1111122 
DISL,ioos:station:DISL:DISL:1,2017-01-02T17:00:00Z,30.2513,-88.0778,2.028,21.92,1111122 
DISL,ioos:station:DISL:DISL:1,2017-01-02T17:30:00Z,30.2513,-88.0778,2.06,21.84,1111122 
DISL,ioos:station:DISL:DISL:1,2017-01-02T18:00:00Z,30.2513,-88.0778,2.046,21.85,1111122 
DISL,ioos:station:DISL:DISL:1,2017-01-02T18:30:00Z,30.2513,-88.0778,2.054,21.97,1111122 
DISL,ioos:station:DISL:DISL:1,2017-01-02T19:00:00Z,30.2513,-88.0778,2.077,22.19,1111122 
DISL,ioos:station:DISL:DISL:1,2017-01-02T19:30:00Z,30.2513,-88.0778,2.095,22.2,1111122 
DISL,ioos:station:DISL:DISL:1,2017-01-02T20:00:00Z,30.2513,-88.0778,2.113,22.2,1111122 
DISL,ioos:station:DISL:DISL:1,2017-01-02T20:30:00Z,30.2513,-88.0778,2.096,22.26,1111122 
DISL,ioos:station:DISL:DISL:1,2017-01-02T21:00:00Z,30.2513,-88.0778,2.073,22.27,1111122 
DISL,ioos:station:DISL:DISL:1,2017-01-02T21:30:00Z,30.2513,-88.0778,2.095,22.2,1111122 
DISL,ioos:station:DISL:DISL:1,2017-01-02T22:00:00Z,30.2513,-88.0778,2.153,21.97,1111122 
DISL,ioos:station:DISL:DISL:1,2017-01-02T22:30:00Z,30.2513,-88.0778,2.202,21.44,1111122 
DISL,ioos:station:DISL:DISL:1,2017-01-02T23:00:00Z,30.2513,-88.0778,2.175,21.67,1111122 
DISL,ioos:station:DISL:DISL:1,2017-01-02T23:30:00Z,30.2513,-88.0778,2.278,22.07,1111122 
DISL,ioos:station:DISL:DISL:1,2017-01-03T00:00:00Z,30.2513,-88.0778,2.415,21.17,1111122 
DISL,ioos:station:DISL:DISL:1,2017-01-03T00:30:00Z,30.2513,-88.0778,2.385,21.13,1111122 
DISL,ioos:station:DISL:DISL:1,2017-01-03T01:00:00Z,30.2513,-88.0778,2.363,21.06,1111122 
DISL,ioos:station:DISL:DISL:1,2017-01-03T01:30:00Z,30.2513,-88.0778,2.338,20.7,1111122 
DISL,ioos:station:DISL:DISL:1,2017-01-03T02:00:00Z,30.2513,-88.0778,2.409,20.87,1111122 
DISL,ioos:station:DISL:DISL:1,2017-01-03T02:30:00Z,30.2513,-88.0778,2.332,20.61,1111122 
DISL,ioos:station:DISL:DISL:1,2017-01-03T03:00:00Z,30.2513,-88.0778,2.21,20.43,1111122 
DISL,ioos:station:DISL:DISL:1,2017-01-03T03:30:00Z,30.2513,-88.0778,2.312,20.96,1111122 
DISL,ioos:station:DISL:DISL:1,2017-01-03T04:00:00Z,30.2513,-88.0778,2.312,22.21,1111122 
DISL,ioos:station:DISL:DISL:1,2017-01-03T04:30:00Z,30.2513,-88.0778,2.323,22.47,1111122 
DISL,ioos:station:DISL:DISL:1,2017-01-03T05:00:00Z,30.2513,-88.0778,2.356,22.63,1111122 
DISL,ioos:station:DISL:DISL:1,2017-01-03T05:30:00Z,30.2513,-88.0778,2.351,22.69,1111122 
DISL,ioos:station:DISL:DISL:1,2017-01-03T06:30:00Z,30.2513,-88.0778,2.429,20.21,1111122 
DISL,ioos:station:DISL:DISL:1,2017-01-03T07:00:00Z,30.2513,-88.0778,2.434,19.8,1111122 
DISL,ioos:station:DISL:DISL:1,2017-01-03T07:30:00Z,30.2513,-88.0778,2.358,19.9,1111122 
DISL,ioos:station:DISL:DISL:1,2017-01-03T08:00:00Z,30.2513,-88.0778,2.389,20.04,1111122 
DISL,ioos:station:DISL:DISL:1,2017-01-03T08:30:00Z,30.2513,-88.0778,2.418,20.6,1111122 
DISL,ioos:station:DISL:DISL:1,2017-01-03T09:00:00Z,30.2513,-88.0778,2.373,20.7,1111122 
DISL,ioos:station:DISL:DISL:1,2017-01-03T09:30:00Z,30.2513,-88.0778,2.365,20.71,1111122 
DISL,ioos:station:DISL:DISL:1,2017-01-03T10:00:00Z,30.2513,-88.0778,2.341,20.57,1111122 
DISL,ioos:station:DISL:DISL:1,2017-01-03T10:30:00Z,30.2513,-88.0778,2.317,20.35,1111122 
DISL,ioos:station:DISL:DISL:1,2017-01-03T11:00:00Z,30.2513,-88.0778,2.29,20.35,1111122 
DISL,ioos:station:DISL:DISL:1,2017-01-03T11:30:00Z,30.2513,-88.0778,2.266,20.65,1111122 
DISL,ioos:station:DISL:DISL:1,2017-01-03T12:00:00Z,30.2513,-88.0778,2.217,20.8,1111122 
DISL,ioos:station:DISL:DISL:1,2017-01-03T12:30:00Z,30.2513,-88.0778,2.212,20.83,1111122 
DISL,ioos:station:DISL:DISL:1,2017-01-03T13:00:00Z,30.2513,-88.0778,2.183,20.95,1111122 
DISL,ioos:station:DISL:DISL:1,2017-01-03T13:30:00Z,30.2513,-88.0778,2.158,21.12,1111122 
DISL,ioos:station:DISL:DISL:1,2017-01-03T14:00:00Z,30.2513,-88.0778,2.121,21.24,1111122 
DISL,ioos:station:DISL:DISL:1,2017-01-03T14:30:00Z,30.2513,-88.0778,2.154,21.3,1111122 
DISL,ioos:station:DISL:DISL:1,2017-01-03T15:00:00Z,30.2513,-88.0778,2.118,21.44,1111122 
DISL,ioos:station:DISL:DISL:1,2017-01-03T15:30:00Z,30.2513,-88.0778,2.121,21.55,1111122 
DISL,ioos:station:DISL:DISL:1,2017-01-03T16:00:00Z,30.2513,-88.0778,2.096,20.96,1111122 
DISL,ioos:station:DISL:DISL:1,2017-01-03T16:30:00Z,30.2513,-88.0778,2.081,20.86,1111122 
DISL,ioos:station:DISL:DISL:1,2017-01-03T17:00:00Z,30.2513,-88.0778,2.101,20.88,1111122 
DISL,ioos:station:DISL:DISL:1,2017-01-03T17:30:00Z,30.2513,-88.0778,2.1,20.61,1111122 
DISL,ioos:station:DISL:DISL:1,2017-01-03T18:00:00Z,30.2513,-88.0778,2.121,20.85,1111122 
DISL,ioos:station:DISL:DISL:1,2017-01-03T18:30:00Z,30.2513,-88.0778,2.096,20.74,1111122 
DISL,ioos:station:DISL:DISL:1,2017-01-03T19:00:00Z,30.2513,-88.0778,2.117,20.73,1111122 
DISL,ioos:station:DISL:DISL:1,2017-01-03T19:30:00Z,30.2513,-88.0778,2.109,20.73,1111122 
DISL,ioos:station:DISL:DISL:1,2017-01-03T20:00:00Z,30.2513,-88.0778,2.144,20.73,1111122 
DISL,ioos:station:DISL:DISL:1,2017-01-03T20:30:00Z,30.2513,-88.0778,2.16,20.42,1111122 
DISL,ioos:station:DISL:DISL:1,2017-01-03T21:00:00Z,30.2513,-88.0778,2.178,20.38,1111122 
DISL,ioos:station:DISL:DISL:1,2017-01-03T21:30:00Z,30.2513,-88.0778,2.205,19.96,1111122 
DISL,ioos:station:DISL:DISL:1,2017-01-03T22:00:00Z,30.2513,-88.0778,2.198,19.88,1111122 
DISL,ioos:station:DISL:DISL:1,2017-01-03T22:30:00Z,30.2513,-88.0778,2.216,19.93,1111122 
DISL,ioos:station:DISL:DISL:1,2017-01-03T23:00:00Z,30.2513,-88.0778,2.246,19.95,1111122 
DISL,ioos:station:DISL:DISL:1,2017-01-03T23:30:00Z,30.2513,-88.0778,2.257,19.91,1111122 
DISL,ioos:station:DISL:DISL:1,2017-01-04T00:00:00Z,30.2513,-88.0778,2.271,19.83,1111122 
DISL,ioos:station:DISL:DISL:1,2017-01-04T00:30:00Z,30.2513,-88.0778,2.283,19.85,1111122 
DISL,ioos:station:DISL:DISL:1,2017-01-04T01:00:00Z,30.2513,-88.0778,2.305,19.99,1111122 
DISL,ioos:station:DISL:DISL:1,2017-01-04T01:30:00Z,30.2513,-88.0778,2.326,20.15,1111122 
DISL,ioos:station:DISL:DISL:1,2017-01-04T02:00:00Z,30.2513,-88.0778,2.315,20.13,1111122 
DISL,ioos:station:DISL:DISL:1,2017-01-04T02:30:00Z,30.2513,-88.0778,2.336,20.83,1111122 
DISL,ioos:station:DISL:DISL:1,2017-01-04T03:00:00Z,30.2513,-88.0778,2.353,20.62,1111122 
DISL,ioos:station:DISL:DISL:1,2017-01-04T03:30:00Z,30.2513,-88.0778,2.345,19.97,1111122 
DISL,ioos:station:DISL:DISL:1,2017-01-04T04:00:00Z,30.2513,-88.0778,2.343,19.9,1111122 
DISL,ioos:station:DISL:DISL:1,2017-01-04T04:30:00Z,30.2513,-88.0778,2.361,19.65,1111122 
DISL,ioos:station:DISL:DISL:1,2017-01-04T05:00:00Z,30.2513,-88.0778,2.374,19.53,1111122 
DISL,ioos:station:DISL:DISL:1,2017-01-04T05:30:00Z,30.2513,-88.0778,2.366,19.57,1111122 
DISL,ioos:station:DISL:DISL:1,2017-01-04T06:30:00Z,30.2513,-88.0778,2.338,19.78,1111122 
DISL,ioos:station:DISL:DISL:1,2017-01-04T07:00:00Z,30.2513,-88.0778,2.347,19.79,1111122 
DISL,ioos:station:DISL:DISL:1,2017-01-04T07:30:00Z,30.2513,-88.0778,2.328,19.73,1111122 
DISL,ioos:station:DISL:DISL:1,2017-01-04T08:00:00Z,30.2513,-88.0778,2.337,19.76,1111122 
DISL,ioos:station:DISL:DISL:1,2017-01-04T08:30:00Z,30.2513,-88.0778,2.317,19.79,1111122 
DISL,ioos:station:DISL:DISL:1,2017-01-04T09:00:00Z,30.2513,-88.0778,2.315,19.92,1111122 
DISL,ioos:station:DISL:DISL:1,2017-01-04T09:30:00Z,30.2513,-88.0778,2.303,19.77,1111122 
DISL,ioos:station:DISL:DISL:1,2017-01-04T10:00:00Z,30.2513,-88.0778,2.286,19.9,1111122 
DISL,ioos:station:DISL:DISL:1,2017-01-04T10:30:00Z,30.2513,-88.0778,2.272,19.81,1111122 
DISL,ioos:station:DISL:DISL:1,2017-01-04T11:00:00Z,30.2513,-88.0778,2.268,19.8,1111122 
DISL,ioos:station:DISL:DISL:1,2017-01-04T11:30:00Z,30.2513,-88.0778,2.257,19.78,1111122 
DISL,ioos:station:DISL:DISL:1,2017-01-04T12:00:00Z,30.2513,-88.0778,2.244,19.89,1111122 
DISL,ioos:station:DISL:DISL:1,2017-01-04T12:30:00Z,30.2513,-88.0778,2.204,19.61,1111122 
DISL,ioos:station:DISL:DISL:1,2017-01-04T13:00:00Z,30.2513,-88.0778,2.234,19.61,1111122 
DISL,ioos:station:DISL:DISL:1,2017-01-04T13:30:00Z,30.2513,-88.0778,2.112,19.72,1111122 
DISL,ioos:station:DISL:DISL:1,2017-01-04T14:00:00Z,30.2513,-88.0778,2.055,19.76,1111122 
DISL,ioos:station:DISL:DISL:1,2017-01-04T14:30:00Z,30.2513,-88.0778,2.068,19.84,1111122 
DISL,ioos:station:DISL:DISL:1,2017-01-04T15:00:00Z,30.2513,-88.0778,2.062,19.99,1111122 
DISL,ioos:station:DISL:DISL:1,2017-01-04T15:30:00Z,30.2513,-88.0778,2.044,20.07,1111122 
DISL,ioos:station:DISL:DISL:1,2017-01-04T16:00:00Z,30.2513,-88.0778,2.045,20.09,1111122 
DISL,ioos:station:DISL:DISL:1,2017-01-04T16:30:00Z,30.2513,-88.0778,2.035,20.18,1111122 
DISL,ioos:station:DISL:DISL:1,2017-01-04T17:00:00Z,30.2513,-88.0778,1.93,20.26,1111122 
DISL,ioos:station:DISL:DISL:1,2017-01-04T17:30:00Z,30.2513,-88.0778,2.062,20.25,1111122 
DISL,ioos:station:DISL:DISL:1,2017-01-04T18:00:00Z,30.2513,-88.0778,2.058,20.18,1111122 
DISL,ioos:station:DISL:DISL:1,2017-01-04T18:30:00Z,30.2513,-88.0778,2.061,19.84,1111122 
DISL,ioos:station:DISL:DISL:1,2017-01-04T19:00:00Z,30.2513,-88.0778,2.052,19.96,1111122 
DISL,ioos:station:DISL:DISL:1,2017-01-04T19:30:00Z,30.2513,-88.0778,2.068,19.85,1111122 
DISL,ioos:station:DISL:DISL:1,2017-01-04T20:00:00Z,30.2513,-88.0778,2.079,19.87,1111122 
DISL,ioos:station:DISL:DISL:1,2017-01-04T20:30:00Z,30.2513,-88.0778,2.1,19.84,1111122 
DISL,ioos:station:DISL:DISL:1,2017-01-04T21:00:00Z,30.2513,-88.0778,2.106,19.78,1111122 
DISL,ioos:station:DISL:DISL:1,2017-01-04T21:30:00Z,30.2513,-88.0778,2.105,19.72,1111122 
DISL,ioos:station:DISL:DISL:1,2017-01-04T22:00:00Z,30.2513,-88.0778,2.083,19.7,1111122 
DISL,ioos:station:DISL:DISL:1,2017-01-04T22:30:00Z,30.2513,-88.0778,2.167,19.7,1111122 
DISL,ioos:station:DISL:DISL:1,2017-01-04T23:00:00Z,30.2513,-88.0778,2.126,19.52,1111122 
DISL,ioos:station:DISL:DISL:1,2017-01-04T23:30:00Z,30.2513,-88.0778,2.17,19.66,1111122 
DISL,ioos:station:DISL:DISL:1,2017-01-05T00:00:00Z,30.2513,-88.0778,2.181,19.63,1111122 
DISL,ioos:station:DISL:DISL:1,2017-01-05T00:30:00Z,30.2513,-88.0778,2.143,19.52,1111122 
DISL,ioos:station:DISL:DISL:1,2017-01-05T01:00:00Z,30.2513,-88.0778,2.141,19.52,1111122 
DISL,ioos:station:DISL:DISL:1,2017-01-05T01:30:00Z,30.2513,-88.0778,2.123,19.58,1111122 
DISL,ioos:station:DISL:DISL:1,2017-01-05T02:00:00Z,30.2513,-88.0778,2.128,19.6,1111122 
DISL,ioos:station:DISL:DISL:1,2017-01-05T02:30:00Z,30.2513,-88.0778,2.109,19.47,1111122 
DISL,ioos:station:DISL:DISL:1,2017-01-05T03:00:00Z,30.2513,-88.0778,2.093,18.96,1111122 
DISL,ioos:station:DISL:DISL:1,2017-01-05T03:30:00Z,30.2513,-88.0778,2.086,18.57,1111122 
DISL,ioos:station:DISL:DISL:1,2017-01-05T04:00:00Z,30.2513,-88.0778,2.151,18.0,1111122 
DISL,ioos:station:DISL:DISL:1,2017-01-05T04:30:00Z,30.2513,-88.0778,2.094,17.66,1111122 
DISL,ioos:station:DISL:DISL:1,2017-01-05T05:00:00Z,30.2513,-88.0778,2.144,17.54,1111122 
DISL,ioos:station:DISL:DISL:1,2017-01-05T05:30:00Z,30.2513,-88.0778,2.102,17.1,1111122 
DISL,ioos:station:DISL:DISL:1,2017-01-05T06:30:00Z,30.2513,-88.0778,2.105,17.02,1111122 
DISL,ioos:station:DISL:DISL:1,2017-01-05T07:00:00Z,30.2513,-88.0778,2.127,17.2,1111122 
DISL,ioos:station:DISL:DISL:1,2017-01-05T07:30:00Z,30.2513,-88.0778,2.11,17.27,1111122 
DISL,ioos:station:DISL:DISL:1,2017-01-05T08:00:00Z,30.2513,-88.0778,2.122,17.4,1111122 
DISL,ioos:station:DISL:DISL:1,2017-01-05T08:30:00Z,30.2513,-88.0778,2.108,18.64,1111122 
DISL,ioos:station:DISL:DISL:1,2017-01-05T09:00:00Z,30.2513,-88.0778,2.144,19.15,1111122 
DISL,ioos:station:DISL:DISL:1,2017-01-05T09:30:00Z,30.2513,-88.0778,2.129,18.45,1111122 
DISL,ioos:station:DISL:DISL:1,2017-01-05T10:00:00Z,30.2513,-88.0778,2.158,18.09,1111122 
DISL,ioos:station:DISL:DISL:1,2017-01-05T10:30:00Z,30.2513,-88.0778,2.134,18.39,1111122 
DISL,ioos:station:DISL:DISL:1,2017-01-05T11:00:00Z,30.2513,-88.0778,2.131,17.97,1111122 
DISL,ioos:station:DISL:DISL:1,2017-01-05T11:30:00Z,30.2513,-88.0778,2.114,18.27,1111122 
DISL,ioos:station:DISL:DISL:1,2017-01-05T12:00:00Z,30.2513,-88.0778,2.096,18.36,1111122 
DISL,ioos:station:DISL:DISL:1,2017-01-05T12:30:00Z,30.2513,-88.0778,2.09,17.19,1111122 
DISL,ioos:station:DISL:DISL:1,2017-01-05T13:00:00Z,30.2513,-88.0778,2.074,16.88,1111122 
DISL,ioos:station:DISL:DISL:1,2017-01-05T13:30:00Z,30.2513,-88.0778,2.069,16.75,1111122 
DISL,ioos:station:DISL:DISL:1,2017-01-05T14:00:00Z,30.2513,-88.0778,2.06,16.73,1111122 
DISL,ioos:station:DISL:DISL:1,2017-01-05T14:30:00Z,30.2513,-88.0778,2.044,16.58,1111122 
DISL,ioos:station:DISL:DISL:1,2017-01-05T15:00:00Z,30.2513,-88.0778,2.053,16.44,1111122 
DISL,ioos:station:DISL:DISL:1,2017-01-05T15:30:00Z,30.2513,-88.0778,2.049,16.4,1111122 
DISL,ioos:station:DISL:DISL:1,2017-01-05T16:00:00Z,30.2513,-88.0778,2.038,16.29,1111122 
DISL,ioos:station:DISL:DISL:1,2017-01-05T16:30:00Z,30.2513,-88.0778,2.052,16.21,1111122 
DISL,ioos:station:DISL:DISL:1,2017-01-05T17:00:00Z,30.2513,-88.0778,2.037,16.14,1111122 
DISL,ioos:station:DISL:DISL:1,2017-01-05T17:30:00Z,30.2513,-88.0778,2.045,16.22,1111122 
DISL,ioos:station:DISL:DISL:1,2017-01-05T18:00:00Z,30.2513,-88.0778,2.061,16.04,1111122 
DISL,ioos:station:DISL:DISL:1,2017-01-05T18:30:00Z,30.2513,-88.0778,2.03,16.1,1111122 
DISL,ioos:station:DISL:DISL:1,2017-01-05T19:00:00Z,30.2513,-88.0778,2.055,16.06,1111122 
DISL,ioos:station:DISL:DISL:1,2017-01-05T19:30:00Z,30.2513,-88.0778,2.076,16.15,1111122 
DISL,ioos:station:DISL:DISL:1,2017-01-05T20:00:00Z,30.2513,-88.0778,2.096,16.23,1111122 
DISL,ioos:station:DISL:DISL:1,2017-01-05T20:30:00Z,30.2513,-88.0778,2.1,17.69,1111122 
DISL,ioos:station:DISL:DISL:1,2017-01-05T21:00:00Z,30.2513,-88.0778,2.109,18.17,1111122 
DISL,ioos:station:DISL:DISL:1,2017-01-05T21:30:00Z,30.2513,-88.0778,2.117,18.26,1111122 
DISL,ioos:station:DISL:DISL:1,2017-01-05T22:00:00Z,30.2513,-88.0778,2.124,17.83,1111122 
DISL,ioos:station:DISL:DISL:1,2017-01-05T22:30:00Z,30.2513,-88.0778,2.15,17.33,1111122 
DISL,ioos:station:DISL:DISL:1,2017-01-05T23:00:00Z,30.2513,-88.0778,2.151,16.64,1111122 
DISL,ioos:station:DISL:DISL:1,2017-01-05T23:30:00Z,30.2513,-88.0778,2.186,16.79,1111122 
DISL,ioos:station:DISL:DISL:1,2017-01-06T00:00:00Z,30.2513,-88.0778,2.19,17.01,1111122 
DISL,ioos:station:DISL:DISL:1,2017-01-06T00:30:00Z,30.2513,-88.0778,2.18,17.27,1111122 
DISL,ioos:station:DISL:DISL:1,2017-01-06T01:00:00Z,30.2513,-88.0778,2.197,16.86,1111122 
DISL,ioos:station:DISL:DISL:1,2017-01-06T01:30:00Z,30.2513,-88.0778,2.187,16.56,1111122 
DISL,ioos:station:DISL:DISL:1,2017-01-06T02:00:00Z,30.2513,-88.0778,2.194,16.28,1111122 
DISL,ioos:station:DISL:DISL:1,2017-01-06T02:30:00Z,30.2513,-88.0778,2.193,17.07,1111122 
DISL,ioos:station:DISL:DISL:1,2017-01-06T03:00:00Z,30.2513,-88.0778,2.195,17.33,1111122 
DISL,ioos:station:DISL:DISL:1,2017-01-06T03:30:00Z,30.2513,-88.0778,2.199,17.42,1111122 
DISL,ioos:station:DISL:DISL:1,2017-01-06T04:00:00Z,30.2513,-88.0778,2.176,17.24,1111122 
DISL,ioos:station:DISL:DISL:1,2017-01-06T04:30:00Z,30.2513,-88.0778,2.186,16.09,1111122 
DISL,ioos:station:DISL:DISL:1,2017-01-06T05:00:00Z,30.2513,-88.0778,2.168,17.42,1111122 
DISL,ioos:station:DISL:DISL:1,2017-01-06T05:30:00Z,30.2513,-88.0778,2.163,15.91,1111122 
DISL,ioos:station:DISL:DISL:1,2017-01-06T06:30:00Z,30.2513,-88.0778,2.162,15.97,1111122 
DISL,ioos:station:DISL:DISL:1,2017-01-06T07:00:00Z,30.2513,-88.0778,2.164,15.66,1111122 
DISL,ioos:station:DISL:DISL:1,2017-01-06T07:30:00Z,30.2513,-88.0778,2.147,15.58,1111122 
DISL,ioos:station:DISL:DISL:1,2017-01-06T08:00:00Z,30.2513,-88.0778,2.13,15.52,1111122 
DISL,ioos:station:DISL:DISL:1,2017-01-06T08:30:00Z,30.2513,-88.0778,2.074,15.58,1111122 
DISL,ioos:station:DISL:DISL:1,2017-01-06T09:00:00Z,30.2513,-88.0778,2.056,15.66,1111122 
DISL,ioos:station:DISL:DISL:1,2017-01-06T09:30:00Z,30.2513,-88.0778,2.088,15.65,1111122 
DISL,ioos:station:DISL:DISL:1,2017-01-06T10:00:00Z,30.2513,-88.0778,2.074,15.54,1111122 
DISL,ioos:station:DISL:DISL:1,2017-01-06T10:30:00Z,30.2513,-88.0778,2.075,15.5,1111122 
DISL,ioos:station:DISL:DISL:1,2017-01-06T11:00:00Z,30.2513,-88.0778,2.072,15.45,1111122 
DISL,ioos:station:DISL:DISL:1,2017-01-06T11:30:00Z,30.2513,-88.0778,2.101,15.47,1111122 
DISL,ioos:station:DISL:DISL:1,2017-01-06T12:00:00Z,30.2513,-88.0778,2.076,15.41,1111122 
DISL,ioos:station:DISL:DISL:1,2017-01-06T12:30:00Z,30.2513,-88.0778,2.019,15.32,1111122 
DISL,ioos:station:DISL:DISL:1,2017-01-06T13:00:00Z,30.2513,-88.0778,2.189,15.41,1111122 
DISL,ioos:station:DISL:DISL:1,2017-01-06T13:30:00Z,30.2513,-88.0778,2.049,15.32,1111122 
DISL,ioos:station:DISL:DISL:1,2017-01-06T14:00:00Z,30.2513,-88.0778,1.937,15.29,1111122 
DISL,ioos:station:DISL:DISL:1,2017-01-06T14:30:00Z,30.2513,-88.0778,2.045,15.34,1111122 
DISL,ioos:station:DISL:DISL:1,2017-01-06T15:00:00Z,30.2513,-88.0778,1.953,15.19,1111122 
DISL,ioos:station:DISL:DISL:1,2017-01-06T15:30:00Z,30.2513,-88.0778,2.04,15.09,1111122 
DISL,ioos:station:DISL:DISL:1,2017-01-06T16:00:00Z,30.2513,-88.0778,2.043,15.02,1111122 
DISL,ioos:station:DISL:DISL:1,2017-01-06T16:30:00Z,30.2513,-88.0778,2.079,14.96,1111122 
DISL,ioos:station:DISL:DISL:1,2017-01-06T17:00:00Z,30.2513,-88.0778,2.043,14.9,1111122 